Flag for Ukraine Weather past 2 weeks in Kryvyi Rih, Ukraine

Now
52 °F

Sprinkles. Mostly cloudy.


Feels Like: 46 °F
Forecast: 43 / 53 °F
Wind: 20 mph from North

Location: Krivyy Rih / Dnipropetrovs'k

Current Time: Sep 24, 2014 at 1:33:38 AM

Latest Report: Sep 24, 2014 at 1:00 AM


Visibility: N/A

Pressure: 29.42 "Hg

Humidity: 88%

Dew point: 48 °F

Location of Kryvyi RihLocation

Historic Weather in Kryvyi Rih — Graph

°F

Kryvyi Rih temperature yesterday

Maximum temperature yesterday: 64 °F (at 2:00 PM)
Minimum temperature yesterday: 54 °F (at 8:00 PM)
Average temperature yesterday: 59 °F

Past Weeks' High & Low Weather Summary

 TemperatureHumidityPressure
High82 °F (Sep 13, 3:00 PM)100% (Sep 23, 6:00 AM)30.30 "Hg (Sep 23, 6:00 AM)
Low43 °F (Sep 20, 6:00 AM)20% (Sep 19, 4:00 PM)29.42 "Hg (Sep 24, 12:00 AM)
Average62 °F53%30.04 "Hg
* Reported Midnight between Sep 8 and Sep 9 — Sep 24 12:30 AM, Kryvyi Rih, Weather by CustomWeather, © 2014

Note: Actual official high and low records may vary slightly from our data, if they occured in-between our weather recording intervals... More about our weather records

Advertising

Kryvyi Rih weather history for previous 24 hours

 ConditionsComfort  
Time TempWeatherWind HumidityBarometerVisibility
12:30 AM
Sep 24
52 °FSprinkles. Mostly cloudy.20 mph94%29.42 "HgN/A
12:00 AM52 °FSprinkles. Mostly cloudy.20 mph94%29.42 "HgN/A
11:30 PM
Sep 23
54 °FSprinkles. Mostly cloudy.17 mph88%29.45 "Hg3 mi
11:00 PM54 °FSprinkles. Mostly cloudy.20 mph88%29.45 "HgN/A
10:30 PM55 °FSprinkles. Mostly cloudy.17 mph82%29.45 "HgN/A
10:00 PM55 °FSprinkles. Mostly cloudy.17 mph82%29.45 "HgN/A
9:30 PM55 °FMostly cloudy.17 mph82%29.47 "HgN/A
9:00 PM55 °FMostly cloudy.13 mph82%29.47 "HgN/A
8:30 PM54 °FMostly cloudy.13 mph88%29.45 "HgN/A
8:00 PM54 °FMostly cloudy.10 mph88%29.47 "HgN/A
7:30 PM57 °FMore clouds than sun.13 mph82%29.47 "HgN/A
7:00 PM57 °FMore clouds than sun.13 mph82%29.47 "HgN/A
6:30 PM57 °FMore clouds than sun.17 mph82%29.50 "HgN/A
6:00 PM57 °FMore clouds than sun.13 mph82%29.50 "HgN/A
5:30 PM59 °FBroken clouds.15 mph77%29.50 "HgN/A
5:00 PM59 °FBroken clouds.15 mph77%29.50 "HgN/A
4:30 PM63 °FBroken clouds.15 mph77%29.50 "HgN/A
4:00 PM63 °FBroken clouds.15 mph77%29.50 "HgN/A
3:30 PM64 °FBroken clouds.15 mph83%29.47 "HgN/A
3:00 PM64 °FBroken clouds.10 mph83%29.47 "HgN/A
2:30 PM64 °FBroken clouds.10 mph88%29.47 "HgN/A
2:00 PM64 °FBroken clouds.6 mph88%29.47 "HgN/A
1:30 PM61 °FBroken clouds.3 mph100%29.47 "HgN/A
1:00 PM61 °FMostly cloudy.6 mph100%29.47 "HgN/A
12:30 PM61 °FSprinkles. Mostly cloudy.6 mph94%29.50 "Hg2 mi
12:00 PM61 °FRain showers. Mostly cloudy.3 mph94%29.47 "Hg1 mi
11:30 AM59 °FSprinkles. Mostly cloudy.6 mph100%29.47 "Hg2 mi
11:00 AM59 °FSprinkles. Mostly cloudy.8 mph100%29.50 "Hg2 mi
10:30 AM59 °FSprinkles. Mostly cloudy.10 mph100%29.50 "Hg1 mi
10:00 AM59 °FRain showers. Mostly cloudy.13 mph100%29.50 "Hg1 mi
9:30 AM59 °FSprinkles. Mostly cloudy.13 mph94%29.50 "Hg3 mi
9:00 AM59 °FMostly cloudy.20 mph94%29.50 "HgN/A
8:30 AM59 °FMostly cloudy.22 mph94%29.50 "HgN/A
8:00 AM59 °FMostly cloudy.24 mph94%29.50 "HgN/A
7:30 AM57 °FSprinkles. Mostly cloudy.22 mph100%29.50 "HgN/A
7:00 AM57 °FRain showers. Mostly cloudy.24 mph100%29.50 "Hg1 mi
6:53 AM57 °FRain showers. Mostly cloudy.22 mph100%29.50 "Hg1 mi
6:30 AM57 °FSprinkles. Mostly cloudy.20 mph100%29.53 "Hg1 mi
6:00 AM57 °FThundershowers. Mostly cloudy.17 mph100%29.56 "Hg1 mi
5:30 AM57 °FLots of rain. Mostly cloudy.17 mph94%29.56 "Hg1 mi
5:00 AM57 °FThundershowers. Mostly cloudy.13 mph94%29.59 "Hg1 mi
4:30 AM57 °FThundershowers. Mostly cloudy.13 mph88%29.59 "Hg1 mi
4:00 AM57 °FSprinkles. Mostly cloudy.13 mph88%29.62 "Hg2 mi
3:30 AM59 °FSprinkles. Mostly cloudy.15 mph77%29.62 "Hg3 mi
3:00 AM59 °FMostly cloudy.13 mph77%29.65 "HgN/A
2:30 AM57 °FMostly cloudy.13 mph82%29.68 "HgN/A
2:00 AM57 °FMostly cloudy.15 mph82%29.68 "HgN/A
1:30 AM59 °FMostly cloudy.15 mph77%29.68 "HgN/A
1:00 AM59 °FMostly cloudy.17 mph77%29.71 "HgN/A
Weather by CustomWeather, © 2014

See weather overviewHow to use our weather pages